SCP
0 0 0 0 0 0 0 0 0 0 0 0 1 2 2 2 2 1 1 2 2 3 3 3 4 4 4 4 4 4 4 4 5 7 9 12 15 16 14 11 8 7 6 5
0 0 0 0 0 0 0 0 0 0 0 1 1 2 3 2 2 1 1 2 2 2 2 2 2 2 2 3 3 3 3 3 3 4 6 10 13 13 12 9 7 6 5 3
0 0 0 0 0 0 0 0 0 0 1 1 2 3 3 3 2 1 1 2 1 1 2 2 2 2 2 2 2 2 2 2 2 2 3 5 8 9 8 7 6 5 3 2
1 0 0 0 0 0 0 0 0 0 1 1 2 2 3 2 2 1 1 2 1 1 2 2 3 3 3 2 2 2 2 2 1 1 1 3 5 6 6 5 4 3 2 1
1 1 0 0 0 0 0 0 0 1 1 1 1 1 2 2 2 2 2 2 2 2 2 3 4 4 4 3 2 3 3 2 2 1 1 2 3 4 4 4 3 2 1 1
1 1 0 0 0 0 0 0 1 1 1 1 1 1 1 2 2 2 2 2 2 2 3 4 4 4 3 3 2 3 3 3 2 1 1 2 3 3 3 3 2 1 1 0
1 1 0 0 0 0 1 1 1 1 1 1 1 1 1 1 1 2 2 2 2 2 3 3 3 3 3 2 2 3 3 2 2 2 2 2 2 2 2 1 1 1 0 0
1 1 0 0 0 1 1 1 1 1 1 1 1 1 1 1 1 1 1 2 2 2 3 3 3 3 2 2 2 2 2 2 2 2 1 1 1 1 1 1 1 1 1 0
1 1 1 0 0 0 1 1 0 0 0 1 1 1 1 1 1 1 1 1 2 2 3 3 3 3 2 2 2 1 1 2 2 1 1 1 1 0 0 1 1 0 0 0
1 1 1 0 0 0 0 0 0 0 0 0 0 0 1 1 1 1 1 1 2 2 2 2 3 2 2 1 1 1 1 1 1 1 1 1 1 0 0 0 0 0 0 0
0 0 0 0 0 0 0 0 0 0 0 0 0 0 1 1 1 1 1 2 2 2 2 2 2 2 2 2 1 1 1 1 1 1 1 1 1 0 0 0 0 0 0 0
0 0 0 0 0 0 0 0 0 0 0 0 0 0 0 1 1 1 1 2 2 2 1 1 1 2 3 3 2 1 1 1 1 1 1 1 0 0 0 0 0 0 0 0
0 0 0 0 0 0 0 0 0 0 0 0 0 0 0 1 1 1 1 1 1 1 1 1 1 1 2 3 2 1 1 1 1 1 0 0 0 0 0 0 0 0 0 0
0 0 0 0 0 0 0 0 0 0 0 0 0 0 0 1 1 1 1 1 1 1 0 1 1 1 1 2 1 1 1 1 0 0 0 0 0 0 0 0 0 0 0 0
0 0 0 0 0 0 0 0 0 0 0 0 0 0 0 1 1 1 1 1 0 0 0 0 0 1 1 1 1 1 1 1 0 0 0 0 0 0 0 0 0 0 0 0
0 0 0 0 0 0 0 0 0 0 0 0 0 0 0 0 0 0 1 1 1 0 0 0 0 0 0 0 0 0 0 0 0 0 0 0 0 0 0 0 0 0 0 0
0 0 0 0 0 0 0 0 0 0 0 0 0 0 0 0 0 0 0 1 1 1 1 1 1 0 0 0 0 0 0 0 0 0 0 0 0 0 0 0 0 0 0 0
0 0 0 0 0 0 0 0 0 0 0 0 0 0 0 0 0 0 1 1 1 1 1 1 1 0 1 1 0 0 0 0 0 0 0 0 0 0 0 0 0 0 0 0
0 0 0 0 0 0 0 0 0 0 0 0 0 0 0 0 1 1 1 1 1 1 1 1 1 1 1 1 1 0 0 0 0 0 0 0 0 0 0 0 0 0 0 0
0 0 0 0 0 0 0 0 0 0 0 0 0 0 0 1 1 1 1 1 1 1 1 1 1 1 1 1 0 0 0 0 0 0 0 0 0 0 0 0 0 0 0 0
0 0 0 0 0 0 0 0 0 0 0 0 0 0 0 1 1 1 1 1 1 1 1 1 1 1 1 0 0 0 0 0 0 0 0 0 0 0 0 0 0 0 0 0
0 0 0 0 0 0 0 0 0 0 0 0 0 0 1 1 1 1 1 1 1 1 0 1 1 1 0 0 0 0 0 0 0 0 0 0 0 0 0 0 0 0 0 0
0 0 1 1 0 0 0 0 0 0 0 0 0 0 1 1 1 1 1 1 1 0 0 0 0 0 0 0 0 0 0 0 0 0 0 0 0 0 0 0 0 0 0 0
0 1 1 1 1 1 0 0 0 0 0 0 0 0 0 1 1 1 1 0 0 0 0 0 0 0 0 0 0 0 0 0 0 0 0 0 0 0 0 0 0 0 0 0
1 1 1 1 1 1 1 0 0 0 0 0 0 0 0 0 1 1 1 0 0 0 0 0 0 0 0 0 0 0 0 0 0 0 0 0 0 0 0 0 0 0 0 0
1 1 1 1 1 1 1 0 0 0 0 0 0 0 0 0 0 1 1 0 0 0 0 0 0 0 0 0 0 0 0 0 0 0 0 0 0 0 1 1 0 0 0 0
1 1 1 1 1 1 1 1 1 0 0 0 0 0 0 0 0 0 0 0 0 0 0 0 0 0 0 0 0 0 0 0 0 0 0 0 0 0 0 0 0 0 0 0
Wind_Speed
6 6 5 5 6 6 6 5 4 3 3 3 4 4 4 3 3 4 4 3 3 3 3 2 2 3 3 3 3 2 1 1 1 0 1 1 1 2 2 1 2 2 2 2
6 4 3 4 6 5 4 5 4 4 4 4 4 4 3 3 4 4 3 3 3 3 3 2 2 2 2 2 1 1 1 0 0 1 1 2 1 1 1 2 2 2 3 3
6 5 4 3 5 4 4 5 5 5 4 2 3 3 3 3 3 2 3 3 3 3 3 2 2 2 1 0 0 0 1 1 1 1 2 2 2 2 2 2 2 2 2 2
6 6 4 2 4 4 4 5 5 5 4 3 3 3 2 2 2 2 2 2 2 2 2 1 1 1 1 1 0 1 1 1 1 2 2 2 3 3 2 2 2 2 2 1
5 5 1 2 3 3 3 3 5 4 4 4 3 1 3 5 4 3 3 2 1 1 1 0 1 1 1 1 1 1 1 1 2 2 2 2 2 3 2 2 2 1 1 1
5 6 4 3 4 3 2 1 5 6 5 6 5 4 3 4 4 4 4 2 1 0 0 0 1 1 2 1 2 2 2 2 2 2 2 2 2 2 2 2 2 1 1 1
5 5 1 4 5 3 3 3 5 6 5 4 4 3 2 2 3 3 2 2 2 1 0 0 0 1 1 2 2 1 1 1 1 1 1 1 1 1 1 2 2 1 1 1
5 4 2 7 6 5 4 3 4 4 4 4 4 3 2 2 2 2 2 2 1 1 1 0 0 0 1 0 1 1 1 1 1 1 2 2 1 2 2 2 2 1 1 1
4 3 3 4 4 3 2 3 4 4 3 3 3 3 3 2 2 2 2 2 2 1 1 1 0 1 1 1 1 1 1 1 1 0 1 1 1 2 2 2 2 2 2 2
3 2 4 4 5 4 4 3 4 4 4 3 3 3 3 2 2 2 2 2 1 1 2 1 1 2 2 1 1 1 1 1 0 0 0 1 1 1 2 2 2 3 3 3
4 4 5 4 5 5 5 4 4 4 4 3 3 3 2 2 2 2 2 2 1 1 2 2 2 2 1 1 1 1 1 1 0 1 1 1 1 1 1 1 1 1 2 2
4 4 4 5 5 5 4 4 3 3 3 3 3 3 2 2 1 1 1 1 1 1 2 2 2 1 1 1 1 1 1 1 1 1 1 1 2 1 2 1 1 2 1 0
3 4 5 5 5 5 5 5 3 2 2 2 2 2 2 1 1 1 1 1 1 2 2 2 1 1 1 1 1 1 1 1 1 1 1 1 1 1 1 1 1 1 3 3
3 4 5 5 4 5 5 5 3 2 2 2 1 1 2 2 2 2 2 2 2 2 1 1 1 2 1 1 1 2 2 1 1 1 1 1 1 1 1 1 1 1 3 6
4 5 5 5 4 3 4 4 3 2 2 2 1 2 2 2 2 2 2 2 2 2 2 1 1 1 1 1 1 1 1 1 1 1 1 1 1 1 1 1 0 1 1 1
5 5 4 4 4 4 4 4 3 3 3 2 1 2 2 2 2 2 2 2 2 2 2 1 1 1 0 1 1 2 2 2 2 2 1 2 1 1 1 1 1 1 1 1
4 5 5 5 5 5 4 4 3 3 3 2 2 2 2 2 2 3 2 2 2 2 1 1 1 1 2 2 2 3 2 3 4 2 1 2 2 2 2 1 1 1 1 2
4 4 4 5 5 5 4 4 3 3 3 3 3 2 3 3 3 3 2 2 2 1 1 1 0 1 2 2 2 2 2 1 2 2 2 2 2 2 2 2 1 1 1 1
4 4 4 5 5 5 4 4 3 3 3 3 3 3 3 3 3 2 2 3 2 2 1 1 1 3 2 1 2 2 3 3 2 2 2 2 2 2 1 1 1 1 1 1
4 4 4 4 4 4 4 4 4 3 3 4 4 3 4 3 2 2 2 2 2 1 1 1 3 3 2 2 3 4 4 3 3 2 2 2 2 1 1 1 1 1 1 1
3 4 4 4 5 5 4 4 4 4 4 4 5 4 3 3 3 2 2 2 1 1 1 2 3 2 2 2 4 5 4 4 3 2 2 2 1 1 2 2 1 1 1 1
3 4 4 4 5 5 5 5 5 5 5 5 5 4 3 3 3 3 3 2 1 2 2 3 3 2 2 4 5 4 4 4 3 2 1 2 2 2 1 1 0 1 1 1
3 4 5 5 5 6 6 6 5 5 5 5 5 4 4 3 3 3 3 2 2 3 3 2 2 3 3 5 5 4 3 3 3 1 1 2 2 1 1 1 0 0 1 1
4 4 5 5 5 6 6 7 6 6 6 6 5 4 4 4 4 4 3 3 3 3 3 2 4 5 5 6 5 4 3 3 3 2 2 2 1 1 1 1 0 0 0 1
5 5 6 6 6 5 6 7 7 6 7 5 5 5 5 4 4 3 2 2 4 5 4 5 7 8 6 5 4 3 3 2 2 2 2 2 2 1 1 1 0 0 0 0
5 5 4 5 5 6 6 6 5 5 6 5 4 4 4 3 4 3 3 4 4 5 5 4 5 7 6 5 3 2 2 1 1 1 2 2 2 2 1 1 1 1 0 1
6 5 5 6 5 6 6 5 6 6 6 5 4 4 4 4 3 3 3 3 4 5 5 4 4 4 5 4 3 2 2 2 2 1 2 2 2 2 1 1 1 0 1 1
Wind_Direction
311 324 338 357 353 359 3 358 347 358 12 38 51 58 58 55 60 65 54 55 49 48 55 50 43 49 57 52 47 36 28 52 76 295 307 345 6 2 342 334 346 0 354 353
294 295 317 345 349 352 359 1 1 9 15 30 59 72 61 43 41 40 38 31 45 45 56 54 40 37 61 63 52 26 333 334 10 6 26 25 23 7 351 1 1 357 3 5
297 307 305 336 1 14 13 9 360 359 11 29 51 48 41 33 31 23 19 20 31 35 23 30 36 23 23 85 126 9 22 18 26 35 36 21 11 20 16 5 354 355 6 14
289 300 310 42 24 30 29 30 30 26 25 29 36 57 57 38 39 25 11 17 20 38 44 4 11 6 338 335 10 49 47 27 34 29 28 26 19 14 9 360 345 343 358 7
299 305 321 92 27 8 24 29 32 20 17 18 11 37 63 46 33 24 16 15 21 58 84 22 11 359 329 335 4 33 38 29 35 21 16 20 19 6 357 341 330 328 356 29
289 306 317 34 17 13 0 31 28 22 18 12 356 332 19 33 17 18 13 7 10 56 116 346 359 346 337 12 21 19 20 22 28 13 357 6 6 349 347 331 330 347 27 42
274 282 354 33 5 335 325 23 13 18 21 4 3 357 15 18 7 6 349 340 345 342 91 36 21 346 344 28 22 4 348 2 38 14 346 9 1 337 327 326 334 342 0 41
287 286 30 17 11 21 29 10 360 8 11 11 10 14 20 12 358 346 336 338 348 348 335 351 4 319 323 328 318 334 326 336 27 20 342 5 1 332 333 330 324 315 336 42
343 3 55 39 43 39 19 353 350 349 355 2 355 341 338 344 350 343 341 348 353 330 329 348 302 227 256 252 254 276 289 300 341 23 353 9 353 347 346 348 348 359 14 14
314 346 1 2 13 11 15 3 349 349 349 357 347 325 330 345 349 352 356 350 339 338 328 319 287 246 240 238 248 257 264 254 239 234 65 49 8 7 12 6 6 7 8 5
305 313 324 5 15 5 359 353 351 348 346 342 331 326 346 353 349 347 341 339 329 322 301 301 294 272 251 220 219 238 234 208 240 223 162 100 59 20 33 19 13 19 7 1
311 352 332 328 338 341 338 330 337 341 337 340 336 331 349 354 335 322 325 339 325 300 290 287 284 272 252 227 201 190 192 204 230 220 190 168 143 106 50 118 115 115 154 251
332 319 313 319 330 333 328 323 322 323 319 323 333 331 338 343 328 339 349 337 313 292 287 292 297 292 246 212 167 162 179 204 264 280 271 230 192 184 178 180 198 252 254 255
319 314 311 315 318 321 319 319 326 333 335 340 342 341 358 350 340 333 321 308 294 280 274 285 284 273 239 164 148 166 181 185 246 264 297 330 317 295 226 204 176 191 226 239
300 295 296 300 297 307 311 312 314 314 327 325 338 346 345 323 310 306 303 297 295 299 290 278 271 307 21 91 101 164 198 208 241 262 269 278 283 297 308 293 297 109 114 185
296 298 304 301 296 299 303 304 307 315 309 310 326 322 312 314 313 305 294 288 290 289 295 305 327 342 193 164 172 202 200 221 247 261 265 279 282 293 309 315 351 60 47 52
287 291 295 293 293 285 281 285 285 285 299 298 296 302 299 297 299 298 292 296 289 275 269 280 280 233 214 205 234 240 219 201 207 238 255 283 295 297 296 303 338 13 42 66
279 274 278 280 281 281 279 283 282 291 298 290 278 286 294 285 279 280 281 278 274 277 249 218 214 231 227 232 267 281 268 245 209 224 234 264 286 299 314 339 355 8 75 114
286 287 287 287 286 278 272 282 295 296 295 294 290 289 280 274 279 273 264 262 255 253 235 178 221 228 227 253 276 250 245 246 238 235 238 239 251 270 304 327 335 345 349 31
297 296 292 291 294 291 279 283 289 283 286 291 282 270 269 270 275 269 264 274 271 257 172 194 219 224 225 215 260 261 243 234 234 235 242 244 256 268 284 290 292 313 10 33
308 310 318 317 311 303 294 291 288 282 281 285 282 273 268 266 264 257 243 248 199 141 197 205 229 226 223 262 252 262 259 250 244 240 257 266 267 272 281 284 299 342 32 34
334 329 323 318 313 311 308 298 288 285 276 276 283 279 271 264 255 247 246 241 204 156 221 219 210 213 250 264 253 252 257 263 257 236 245 269 271 268 274 281 327 24 34 36
315 314 315 317 311 305 298 288 285 286 276 271 276 274 267 261 256 251 241 209 204 190 229 246 190 190 230 253 264 264 262 271 268 253 251 247 242 251 270 289 358 48 33 14
310 309 308 306 299 291 290 288 282 279 273 267 265 262 256 247 244 242 243 199 189 180 225 197 189 202 228 254 263 265 264 266 267 270 272 267 238 227 241 265 269 276 77 23
296 296 298 296 290 283 279 279 277 274 269 261 261 259 253 246 246 249 246 217 182 189 218 207 202 212 231 252 256 264 272 284 301 309 314 304 292 273 270 269 256 296 26 26
278 275 279 283 283 279 272 273 273 275 272 267 267 263 261 254 240 231 220 225 212 209 231 231 205 212 236 256 262 274 278 251 232 245 276 282 281 279 291 307 305 309 12 71
255 254 254 256 262 271 275 277 280 282 282 276 272 264 262 261 251 240 239 240 226 219 226 231 226 220 228 236 231 238 248 243 253 256 259 264 257 245 242 233 219 109 36 51